Hillsdale, MI

3:10 AM EST on December 08, 2016 (GMT -0500)
Hillsdale Municipal

Weather History for KJYM - March, 2013

Change the Weather History Date:

Sunday, March 10, 2013

  Actual Average Record
Temperature  
Mean Temperature 48 °F -  
Max Temperature 57 °F 42 °F 63 °F (1955)
Min Temperature 38 °F 24 °F -4 °F (1972)
Degree Days  
Heating Degree Days 18    
Moisture  
Dew Point 36 °F    
Average Humidity 61    
Maximum Humidity 80    
Minimum Humidity 53    
Precipitation  
Precipitation 0.00 in - - ()
Sea Level Pressure  
Sea Level Pressure 29.88 in    
Wind  
Wind Speed 8 mph (SSE)    
Max Wind Speed 15 mph    
Max Gust Speed 23 mph    
Visibility 10 miles    
Events Rain    
Averages and records for this station are not official NWS values.
T = Trace of Precipitation, MM = Missing Value Source: NWS Daily Summary

Daily Weather History Graph

Daily Weather History Graph

Search for Another Location

Airport or City:

Trip Planner

Search our weather history database for the weather conditions in past years. The results will help you decide how hot, cold, wet, or windy it might be!

Date:

Astronomy

Mar. 10, 2013 Rise Set
Actual Time 7:58 AM EDT 7:39 PM EDT
Civil Twilight 7:30 AM EDT 8:07 PM EDT
Nautical Twilight 6:58 AM EDT 8:39 PM EDT
Astronomical Twilight 6:25 AM EDT 9:12 PM EDT
Moon 6:58 AM EDT (3/10) 6:46 PM EDT (3/10)
Length of Visible Light 12h 36m
Length of Day
11h 41m
Waning Crescent, 2% of the Moon is Illuminated
Mar 10
Waning Crescent
Mar 11
New
Mar 19
First Quarter
Mar 27
Full
Apr 3
Last Quarter

Hourly Weather History & Observations

Time (EDT) Temp. Windchill Dew Point Humidity Pressure Visibility Wind Dir Wind Speed Gust Speed Precip Events Conditions
12:14 AM 38.7 °F 32.9 °F 32.5 °F 79% 29.98 in 10.0 mi SE 8.1 mph - N/A   Clear
12:35 AM 38.5 °F 33.4 °F 32.4 °F 79% 29.98 in 10.0 mi SE 6.9 mph - N/A   Clear
12:54 AM 38.1 °F 32.3 °F 32.4 °F 80% 29.98 in 10.0 mi SE 8.1 mph - N/A   Scattered Clouds
1:14 AM 38.8 °F 33.2 °F 32.5 °F 78% 29.97 in 10.0 mi SE 8.1 mph - N/A   Overcast
1:35 AM 38.8 °F 33.8 °F 32.5 °F 78% 29.97 in 10.0 mi SSE 6.9 mph - N/A   Overcast
1:54 AM 39.6 °F 34.7 °F 32.5 °F 76% 29.96 in 10.0 mi SSE 6.9 mph - N/A   Mostly Cloudy
3:14 AM 39.7 °F 34.9 °F 32.5 °F 75% 29.96 in 10.0 mi SSE 6.9 mph - N/A   Scattered Clouds
3:35 AM 39.7 °F 34.3 °F 32.5 °F 75% 29.95 in 10.0 mi SE 8.1 mph - N/A   Scattered Clouds
3:54 AM 39.7 °F 34.3 °F 32.5 °F 75% 29.94 in 10.0 mi SSE 8.1 mph - N/A   Mostly Cloudy
4:15 AM 39.9 °F 35.1 °F 32.4 °F 74% 29.94 in 10.0 mi SSE 6.9 mph - N/A   Overcast
4:35 AM 40.5 °F 35.8 °F 32.4 °F 73% 29.93 in 10.0 mi SSE 6.9 mph - N/A   Overcast
4:54 AM 40.8 °F 35.6 °F 32.2 °F 71% 29.93 in 10.0 mi SSE 8.1 mph - N/A   Overcast
5:15 AM 41.2 °F 36.6 °F 32.2 °F 70% 29.93 in 10.0 mi SSE 6.9 mph - N/A   Overcast
5:35 AM 42.3 °F 37.3 °F 32.2 °F 67% 29.93 in 10.0 mi SSE 8.1 mph - N/A   Overcast
5:54 AM 43.5 °F 38.3 °F 31.5 °F 63% 29.92 in 10.0 mi SSE 9.2 mph - N/A   Overcast
6:15 AM 44.1 °F 38.6 °F 31.3 °F 61% 29.93 in 10.0 mi South 10.4 mph - N/A   Overcast
6:35 AM 43.9 °F 38.3 °F 31.3 °F 61% 29.94 in 10.0 mi South 10.4 mph - N/A   Overcast
6:54 AM 43.2 °F 37.9 °F 31.8 °F 64% 29.94 in 10.0 mi South 9.2 mph - N/A   Overcast
7:15 AM 42.6 °F 37.8 °F 32.5 °F 68% 29.94 in 10.0 mi South 8.1 mph - N/A   Overcast
7:34 AM 42.3 °F 37.9 °F 32.5 °F 68% 29.94 in 10.0 mi South 6.9 mph - N/A   Overcast
8:34 AM 43.3 °F 39.2 °F 32.7 °F 66% 29.94 in 10.0 mi South 6.9 mph - N/A   Overcast
8:54 AM 44.6 °F 40.2 °F 32.7 °F 63% 29.94 in 10.0 mi SSE 8.1 mph - N/A   Mostly Cloudy
9:15 AM 45.0 °F 41.8 °F 32.9 °F 63% 29.92 in 10.0 mi SSE 5.8 mph - N/A Rain Light Rain
9:34 AM 45.9 °F 41.2 °F 32.9 °F 61% 29.92 in 10.0 mi SSE 9.2 mph - N/A   Clear
9:55 AM 46.6 °F - 33.3 °F 60% 29.92 in 10.0 mi South 8.1 mph - N/A   Clear
10:15 AM 47.1 °F - 33.3 °F 59% 29.91 in 10.0 mi South 8.1 mph - N/A   Clear
10:34 AM 47.1 °F - 33.4 °F 59% 29.91 in 10.0 mi South 9.2 mph - N/A   Clear
10:55 AM 47.3 °F - 34.0 °F 60% 29.91 in 10.0 mi SSE 10.4 mph - N/A   Clear
11:15 AM 48.7 °F - 34.2 °F 57% 29.91 in 10.0 mi South 10.4 mph - N/A   Clear
11:34 AM 48.7 °F - 34.3 °F 58% 29.91 in 10.0 mi South 10.4 mph - N/A   Clear
11:55 AM 49.5 °F - 34.3 °F 56% 29.91 in 10.0 mi South 11.5 mph 17.3 mph N/A   Clear
12:14 PM 50.2 °F - 34.7 °F 55% 29.91 in 10.0 mi South 11.5 mph 17.3 mph N/A   Clear
12:34 PM 50.7 °F - 35.1 °F 55% 29.91 in 10.0 mi South 13.8 mph 18.4 mph N/A   Clear
12:55 PM 51.1 °F - 35.4 °F 55% 29.91 in 10.0 mi South 11.5 mph 18.4 mph N/A   Clear
1:14 PM 52.0 °F - 36.0 °F 54% 29.90 in 10.0 mi SSW 10.4 mph - N/A   Scattered Clouds
1:34 PM 52.9 °F - 36.5 °F 54% 29.88 in 10.0 mi South 9.2 mph - N/A   Scattered Clouds
1:54 PM 53.2 °F - 36.3 °F 53% 29.88 in 10.0 mi South 10.4 mph 16.1 mph N/A   Scattered Clouds
2:14 PM 52.5 °F - 36.9 °F 55% 29.89 in 10.0 mi South 11.5 mph 17.3 mph N/A   Clear
2:34 PM 52.3 °F - 37.0 °F 56% 29.89 in 10.0 mi South 8.1 mph - N/A   Clear
2:54 PM 53.1 °F - 37.6 °F 56% 29.89 in 10.0 mi South 10.4 mph 16.1 mph N/A   Clear
3:15 PM 54.7 °F - 38.3 °F 54% 29.89 in 10.0 mi South 10.4 mph 17.3 mph N/A   Clear
3:34 PM 54.7 °F - 38.5 °F 54% 29.89 in 10.0 mi South 10.4 mph - N/A   Clear
3:54 PM 55.2 °F - 39.0 °F 54% 29.85 in 10.0 mi South 11.5 mph 17.3 mph N/A   Clear
4:15 PM 54.9 °F - 39.4 °F 56% 29.84 in 10.0 mi South 10.4 mph - N/A   Clear
4:34 PM 55.2 °F - 39.7 °F 56% 29.85 in 10.0 mi South 6.9 mph - N/A   Clear
4:55 PM 55.8 °F - 40.3 °F 56% 29.85 in 10.0 mi SSE 5.8 mph - N/A   Clear
5:15 PM 57.6 °F - 40.8 °F 54% 29.85 in 10.0 mi South 8.1 mph - N/A   Clear
5:34 PM 57.0 °F - 41.2 °F 55% 29.85 in 10.0 mi SSE 8.1 mph - N/A   Clear
5:55 PM 56.3 °F - 41.2 °F 57% 29.85 in 10.0 mi SSE 8.1 mph - N/A   Clear
6:14 PM 56.3 °F - 40.5 °F 55% 29.84 in 10.0 mi SSE 9.2 mph - N/A   Clear
6:35 PM 55.8 °F - 39.9 °F 55% 29.83 in 10.0 mi SSE 8.1 mph - N/A   Clear
6:54 PM 55.0 °F - 39.6 °F 56% 29.80 in 10.0 mi SE 9.2 mph - N/A   Clear
7:14 PM 54.9 °F - 39.0 °F 55% 29.80 in 10.0 mi SE 9.2 mph - N/A   Clear
7:35 PM 54.9 °F - 38.8 °F 55% 29.82 in 10.0 mi SSE 8.1 mph - N/A   Clear
7:54 PM 53.8 °F - 38.5 °F 56% 29.83 in 10.0 mi SSE 5.8 mph - N/A   Clear
8:14 PM 53.8 °F - 38.1 °F 55% 29.83 in 10.0 mi SSE 6.9 mph - N/A   Clear
8:35 PM 53.1 °F - 38.1 °F 57% 29.82 in 10.0 mi SE 6.9 mph - N/A   Scattered Clouds
8:54 PM 53.6 °F - 37.9 °F 55% 29.83 in 10.0 mi SSE 6.9 mph - N/A   Mostly Cloudy
9:14 PM 53.6 °F - 37.9 °F 55% 29.82 in 10.0 mi SE 10.4 mph - N/A   Overcast
9:35 PM 52.3 °F - 38.1 °F 58% 29.79 in 10.0 mi SE 9.2 mph - N/A   Mostly Cloudy
10:15 PM 53.4 °F - 37.8 °F 55% 29.79 in 10.0 mi SSE 8.1 mph - N/A   Scattered Clouds
10:34 PM 53.1 °F - 37.6 °F 56% 29.79 in 10.0 mi SSE 6.9 mph - N/A   Mostly Cloudy
10:55 PM 53.1 °F - 37.4 °F 55% 29.78 in 10.0 mi SSE 9.2 mph - N/A   Overcast
11:15 PM 53.2 °F - 37.9 °F 56% 29.80 in 10.0 mi South 12.7 mph 21.9 mph N/A Rain Rain
11:34 PM 50.9 °F - 39.4 °F 65% 29.79 in 10.0 mi South 6.9 mph - N/A Rain Light Rain
11:55 PM 50.9 °F - 39.2 °F 64% 29.78 in 10.0 mi SSE 6.9 mph - N/A Rain Light Rain
12:15 AM 52.7 °F - 37.9 °F 57% 29.77 in 10.0 mi SSE 9.2 mph - N/A   Overcast
12:34 AM 53.6 °F - 37.6 °F 55% 29.77 in 10.0 mi South 12.7 mph 17.3 mph N/A Rain Light Rain
12:55 AM 54.7 °F - 37.9 °F 53% 29.76 in 10.0 mi South 15.0 mph 23.0 mph N/A   Overcast